Regional Weather Roundup
Issued by NWS Wakefield, VA

Home | Current Version | Previous Version | Text Only | Print | Product List | Glossary Off
Versions: 1 2 3 4 5 6 7 8 9 10 11 12 13 14 15 16 17 18 19 20 21 22 23 24 25 26 27

000
ASUS41 KAKQ 222010
RWRAKQ

REGIONAL WEATHER ROUNDUP
NATIONAL WEATHER SERVICE WAKEFIELD VA
400 PM EDT WED OCT 22 2014

Note: "fair" indicates few or no clouds below 12,000 feet with no
significant weather and/or obstructions to visibility. * = Denotes
station may not report precipitation (e.g., rain,snow,etc.),
thunder or fog.

VAZ042-051-052>054-056-222100-
NORTHERN VIRGINIA

CITY           SKY/WX    TMP DP  RH WIND       PRES   REMARKS
WASH NATIONAL  CLOUDY    57  49  74 NW17      29.93S
DULLES         LGT RAIN  53  49  86 NW14G21   29.96R
FORT BELVOIR   LGT RAIN  55  50  85 NW14      29.94S
QUANTICO       CLOUDY    54  49  83 NW16G29   29.95S
FREDERICKSBRG* LGT RAIN  55  53  92 NW14      29.94S
STAFFORD*      LGT RAIN  52  52 100 NW13      29.98S
WARRENTON      LGT RAIN  55  54  98 NW13G20   29.96S
CULPEPER*      CLOUDY    54  50  87 NW12G17   29.98S
MANASSAS*      LGT RAIN  54  52  94 NW14G24   29.96S
LEESBURG*      CLOUDY    55  52  88 N17G26    29.97S
WINCHESTER     CLOUDY    54  43  66 NW9G16    30.00S
FRONT ROYAL*   CLOUDY    52  46  82 NW10G16   30.00F
LURAY*         DRIZZLE   54  46  76 N12G20    30.02S
$$

VAZ048-049-060>072-079>083-222100-
CENTRAL AND SOUTH CENTRAL VIRGINIA...AND NORTH CENTRAL NORTH CAROLINA

CITY           SKY/WX    TMP DP  RH WIND       PRES   REMARKS
RICHMOND       CLOUDY    57  48  72 N17G31    29.92R
CHESTERFIELD*  CLOUDY   N/A N/A N/A NW18G25   29.94R
PETERSBURG*    DRIZZLE   58  47  65 NW10G26   29.93R
HANOVER        CLOUDY    56  49  77 NW9G18    29.95R
TAPPAHANNOCK*  DRIZZLE   54  50  85 W10G21    29.90R
CHARLOTTSVILLE LGT RAIN  56  44  64 N9        29.99R
ORANGE*        LGT RAIN  55  48  76 NW12G18   29.99S
LOUISA*        LGT RAIN  57  48  72 N14G23    29.95S
FARMVILLE*     CLOUDY    63  45  51 N12G17    29.95R
CREWE*         CLOUDY    60  43  54 NW12G23   29.95R
FORT PICKETT*  CLOUDY    58  48  68 N8        29.94S
LUNENBURG*     CLOUDY    63  47  55 N15G23    29.94S
SOUTH HILL*    CLOUDY    63  46  55 N9        29.99R
LAWRENCEVILLE* CLOUDY    59  49  69 NW9       29.93S
ROANOKE RAPIDS CLOUDY    59  48  67 NW12      29.93S
RALEIGH        PTSUNNY   66  41  40 N9G21     29.97S
$$

VAZ088>098-222100-
SOUTHEAST VIRGINIA

CITY           SKY/WX    TMP DP  RH WIND       PRES   REMARKS
NORFOLK        CLOUDY    57  50  77 NW13G26   29.83R
VIRGINIA BEACH CLOUDY    59  52  77 NW24G31   29.81R
NORFOLK NAVAL  LGT RAIN  58  51  78 NW21G32   29.85R
WEST POINT*    CLOUDY    56  53  88 NW13G20   29.89R
NEWPORT NEWS   LGT RAIN  57  52  83 NW13G24   29.85S
LANGLEY AFB    LGT RAIN  56  55  99 NW18G28   29.84S FOG
FORT EUSTIS    DRIZZLE   55  55 100 NW21G26   29.85R
WILLIAMSBURG*  SUNNY     55  54  94 NW15G22   29.88S
HR EXEC AP*    CLOUDY    55  48  76 NW8G18    29.87S
FRANKLIN*      CLOUDY    55  52  88 NW10G18   29.89S
WAKEFIELD      CLOUDY    58  49  72 NW9G17    29.90R
$$

VAZ020-022-025-037-045-222100-
WEST CENTRAL AND SOUTHWEST VIRGINIA

CITY           SKY/WX    TMP DP  RH WIND       PRES   REMARKS
STAUNTON*      CLOUDY    56  42  58 N12       30.04R
HOT SPRINGS VA CLOUDY    43  37  80 NW16G24   30.04R
LYNCHBURG      MOSUNNY   62  40  44 NW9G17    29.99S
DANVILLE       PTSUNNY   65  41  41 N18G24    30.00S
SOUTH BOSTON*  NOT AVBL
MARTINSVILLE   MOSUNNY   61  41  48 NW17G28   30.07S
ROANOKE        PTSUNNY   60  39  45 NW15G25   30.06R
BLACKSBURG     CLOUDY    52  43  71 NW13G20   30.12R
DUBLIN*        CLOUDY    51  42  69 NW12G17   30.13R
MARION*        CLOUDY    46  40  78 NW12      30.17S
HILLSVILLE*    CLOUDY    46  38  74 NW17G26   30.10R
RICHLANDS*     CLOUDY    45  42  90 NW9       30.18S
WISE*          CLOUDY    43  43 100 N9        30.21R
ABINGDON*      CLOUDY    48  41  75 N8G16     30.18S
$$

MDZ021>025-VAZ099-100-222100-
SOUTHERN MARYLAND AND THE DELMARVA PENINSULA

CITY           SKY/WX    TMP DP  RH WIND       PRES   REMARKS
PATUXENT RIVER LGT RAIN  55  52  89 NW21G29   29.85R
BAY BRIDGE APT LGT RAIN  54  52  94 N18G26    29.87S
LEONARDTOWN    CLOUDY    52  50  93 NW8       29.88S
DOVER          LGT RAIN  55  55  97 NW21G28   29.80R
GEORGETOWN     CLOUDY    57  51  80 N14G22    29.79R
EASTON         CLOUDY    57  57 100 N10       29.88R
CAMBRIDGE      NOT AVBL
SALISBURY      CLOUDY    59  52  77 N23G31    29.78S
OCEAN CITY     CLOUDY    58  54  86 N14G23    29.73F
WALLOPS ISLAND CLOUDY    59  54  83 N14G22    29.76F
ACCOMACK*      CLOUDY    57  52  82 N10G20    29.78S
$$

NCZ012>017-030>032-222100-
EASTERN NORTH CAROLINA

CITY           SKY/WX    TMP DP  RH WIND       PRES   REMARKS
ELIZABETH CITY CLOUDY    59  50  72 NW15G24   29.84R
AHOSKIE*       PTSUNNY   59  47  65 N8G23     29.91S
EDENTON*       CLOUDY    56  51  82 NW13G25   29.88S
CURRITUCK*     CLOUDY    59  49  71 W9G20     29.83S
KILL DEVIL HLS CLOUDY    59  52  77 NW10G20   29.80R
MANTEO         CLOUDY    58  51  78 NW14G22   29.82S
CAPE HATTERAS  CLOUDY    58  51  78 NW13G25   29.85S
TARBORO*       CLOUDY    62  47  58 NW6       29.93S
GOLDSBORO      PTSUNNY   67  48  51 NW13G21   29.92F
WASHINGTON     PTSUNNY   58  48  68 NW13G18   29.92R
GREENVILLE     CLOUDY    61  46  59 N8G17     29.95S
NEW BERN       CLOUDY    63  46  54 NW14G24   29.93R
WILMINGTON     PTSUNNY   67  44  43 NW16G22   29.94S
$$

VAZ048-222100-
ELSEWHERE

CITY           SKY/WX    TMP DP  RH WIND       PRES   REMARKS
HARRISBURG PA  CLOUDY    55  46  71 N13G21    29.95S
BALTIMORE      LGT RAIN  54  50  86 NW9G20    29.90S
ANNAPOLIS      LGT RAIN  55  52  89 NW15      29.88S
ANDREWS AFB    CLOUDY    54  51  91 NW17      29.91R
WILMINGTON DE  LGT RAIN  55  53  93 N13       29.86S
PHILADELPHIA   LGT RAIN  55  50  83 N16G25    29.84F
WILDWOOD NJ*   CLOUDY    55  48  76 N12G24    29.77S
ATLANTIC CITY  LGT RAIN  55  53  93 N16G23    29.76S
HENDERSON NC   MOSUNNY   62  41  44 NW10G18   29.96S
GREENSBORO     PTSUNNY   62  40  44 N16G24    30.03R
ROCKY MOUNT    CLOUDY    64  46  52 NW8       29.93F
FAYETTEVILLE   PTSUNNY   69  43  38 NW16      29.96F
CHARLOTTE      MOSUNNY   67  37  33 N12       30.05S
$$

VAZ100-222100-
MARINE

STATION/POSITION TIME  TEMP    WIND        PRES    WAVE   SWELL
                       AIR SEA DIR/SP/G            HT/PER HT/PER
                 (UTC) (F)     (DEG/KT/KT) (MB)    (FT/S) (FT/S)
44066 TX TWR #4  2000   63 66   30/ 37/ 45 1000.1F
CAPE MAY NJ      2000   58 67  360/ 15/ 25 1007.3R
LEWES DE         2000   58 62  360/ 25/ 30 1007.8R
15NM E FENWICK I 2000   60 66  330/ 31/ 37 1004.5F   9/ 7   2/11
OCEAN-CITY-INLET 2000   60 64  360/ 19/ 24 1006.3S
WACHAPREAGUE VA  2000   58 63  320/  6/ 16 1008.2F
THOMAS POINT MD  2000   55 63  340/ 19/ 22 1012.3R
GOOSES REEF MD   2000   57     360/ 25/ 31 1011.0R
COVE POINT MD    2000   56     350/ 32/ 36 1010.2F
SOLOMONS ISLAND  2000      65                N/A
BISHOPS HEAD MD  2000   56 60  340/ 15/ 17 1009.2F
PINEY POINT MD   2000          350/ 24/ 26   N/A
POTOMAC MD       2000   56     340/ 19/ 25 1010.0R
CAMBRIDGE MD     2000   56 62  350/ 18/ 22 1010.0R
LEWISETTA VA     2000   56 62  340/ 17/ 24 1010.6S
RAPPAHANNOCK LGT 2000          320/ 33/ 38 1009.0F
STINGRAY PT      2000   57     330/ 23/ 29 1010.4S
YORK RVR RNG VA  2000   56     330/ 22/ 25 1009.8S
YORKTOWN VA      2000   56 66  320/ 24/ 25 1010.3F
JAMESTOWN VA     2000   56     350/ 17/ 21   N/A
DOMINION TERM VA 2000   57     320/  6/ 19 1010.4R
KIPTOPEKE VA     2000      67  330/ 29/ 35   N/A
CHES BAY BRIDGE  2000   58 67  300/ 28/ 33 1009.2R
CHESAPEAKE LGHT  1900   60     320/ 30/ 35 1008.5R
WILLOUBY STN VA  2000   56     320/ 22/ 26 1009.0R
S CRANEY ISL VA  2000          300/ 17/ 28 1009.9S
CAPE HENRY BUOY  2000      69                N/A     6/ 5
1ST LANDING BUOY 2000   60     320/ 27/ 31 1008.9S
CAPE CHARLES BUO 2000      68                N/A     5/ 4   2/11
64NM E OF VA BCH 2000   61 69  330/ 17/ 21 1005.5S   5/ 6   2/10
DUCK PIER NC     2000   60 68  310/ 21/ 27 1008.3R
44100 DUCK FRF   2000      70                N/A     5/ 5
44056 DUCK FRF   1900                        N/A     4/ 5
OREGON INLET NC  2000   59 66  280/ 20/ 25 1009.3R
HATTERAS NC      2000   59 68  300/ 24/ 26 1011.2R
DIAMOND SHLS NC  2000   62     300/ 25/ 31 1010.1R   5/ 5   2/10
CAPE LOOKOUT NC  1900   62     320/ 17/ 20 1012.3R
$$



USA.gov is the U.S. government's official web portal to all federal, state and local government web resources and services.